User: anonymous   Login
Location: Bagnara
(41.0500°N, 14.7833°E)
Time: 02:29:04
(UTC+00:00)
Language:

Meteor 2-3 Rocket - Orbit

View from above orbital plane
View from above orbital plane
View from above satellite
View from above satellite

Ground track
Ground track

The orbit data is extracted from the following two-line orbital elements,

1 10515U 77117B   21269.57054430  .00000176  00000-0  94246-4 0  9996
2 10515  81.2454 200.7008 0029276 146.7353 213.5665 14.08719406249519
Epoch (UTC): 26 September 2021 13:41:35
Eccentricity: 0.0029276
inclination: 81.2454°
perigee height: 842 km
apogee height: 885 km
right ascension of ascending node: 200.7008°
argument of perigee: 146.7353°
revolutions per day: 14.08719406
mean anomaly at epoch: 213.5665°
orbit number at epoch: 24951

The dashed part of the orbit path shows where the satellite is in the earth's shadow,  

DLR